ZIYUAN 3-2 (ZY 3-2)

Last updated on Fri Sep 19 2025 00:02:31 GMT+0000 (Coordinated Universal Time)

1 41556U 16033A 25261.34445406 .00006521 00000+0 29508-3 0 9990 2 41556 97.4130 336.8910 0010759 185.1810 174.9316 15.21191827516654
UTC large
Height (km)
Speed (km/s)
/
Latitude / Longitude
Inclination (degrees)
Orbital Period (minutes)
Azimuth
Elevation
Range (km)
Doppler Factor

Next 0 passes for location: London (51.5072 / 0.1276)

Sorry there are no passes over London.